Flag for U.S.A. Weather past 2 weeks in Baltimore, Maryland, U.S.A.

46 °F

Low clouds.

Feels Like: 45 °F
Forecast: 38 / 49 °F
Wind: 3 mph from Northeast

Location: Baltimore-Washington International Airport

Current Time: Nov 29, 2015 at 2:27:00 PM

Latest Report: Nov 29, 2015 at 1:54 PM

Visibility: 8 mi

Pressure: 30.21 "Hg

Humidity: 89%

Dew point: 43 °F

Location of BaltimoreLocation

Historic Weather in Baltimore — Graph


Baltimore temperature yesterday

Maximum temperature yesterday: 65 °F (at 12:54 PM)
Minimum temperature yesterday: 48 °F (at 6:54 AM)
Average temperature yesterday: 57 °F

Past Weeks' High & Low Weather Summary

High69 °F (Nov 16, 12:54 PM)100% (Nov 19, 7:54 PM)30.79 "Hg (Nov 19, 7:54 PM)
Low29 °F (Nov 23, 8:54 PM)20% (Nov 20, 3:54 PM)29.89 "Hg (Nov 21, 11:54 PM)
Average48 °F65%30.30 "Hg
* Reported Nov 14 12:54 PM — Nov 29 12:54 PM, Baltimore, Weather by CustomWeather, © 2015

Note: Actual official high and low records may vary slightly from our data, if they occured in-between our weather recording intervals... More about our weather records


Baltimore weather history for previous 24 hours

Time TempWeatherWind HumidityBarometerVisibility
12:54 PM
Sun, Nov 29
45 °FFog.6 mph93%30.21 "Hg4 mi
11:54 AM46 °FDrizzle. Fog.6 mph93%30.22 "Hg4 mi
10:54 AM45 °FDrizzle. Fog.8 mph93%30.24 "Hg2 mi
9:54 AM46 °FLight rain. Fog.8 mph89%30.25 "Hg6 mi
8:54 AM46 °FLight rain. Fog.10 mph89%30.23 "Hg6 mi
7:54 AM47 °FLight rain. Fog.7 mph93%30.23 "Hg4 mi
6:54 AM48 °FLight rain. Fog.8 mph89%30.21 "Hg6 mi
5:54 AM48 °FLight rain. Fog.6 mph93%30.19 "Hg5 mi
4:54 AM48 °FLight rain. Fog.6 mph93%30.17 "Hg6 mi
3:54 AM49 °FLight rain. Fog.6 mph93%30.17 "Hg5 mi
2:54 AM50 °FLight rain. Fog.6 mph96%30.18 "Hg5 mi
1:54 AM51 °FLight rain. Fog.7 mph92%30.16 "Hg5 mi
1:04 AM52 °FLight rain. Fog.7 mph93%30.18 "Hg3 mi
10:54 PM
Sat, Nov 28
56 °FLight rain. Fog.9 mph87%30.17 "Hg5 mi
9:54 PM59 °FLight rain. Overcast.7 mph81%30.16 "Hg10 mi
8:54 PM59 °FMostly cloudy.3 mph81%30.14 "Hg10 mi
7:54 PM57 °FMostly cloudy.No wind90%30.14 "Hg10 mi
6:54 PM58 °FLight rain. Mostly cloudy.No wind87%30.13 "Hg10 mi
5:54 PM60 °FLight rain. Overcast.No wind75%30.12 "Hg10 mi
4:54 PM62 °FMostly cloudy.3 mph70%30.12 "Hg10 mi
3:54 PM63 °FLight rain. Mostly cloudy.5 mph68%30.13 "Hg10 mi
2:54 PM65 °FCloudy.3 mph61%30.12 "Hg10 mi
Weather by CustomWeather, © 2015

See weather overviewHow to use our weather pages